Regional Weather Roundup
Issued by NWS

Home | Current Version | Previous Version | Graphics & Text | Print | Product List | Glossary On
Versions: 1 2 3 4 5 6 7 8 9 10 11 12 13 14 15 16 17 18 19 20 21 22 23 24 25 26 27 28 29 30 31 32 33 34 35 36 37 38 39 40 41 42 43 44 45 46 47 48 49 50
000
ASUS43 KLMK 032310
RWRKY
KENTUCKY REGIONAL WEATHER ROUNDUP
NATIONAL WEATHER SERVICE LOUISVILLE KY
600 PM EST TUE MAR 03 2015

NOTE "FAIR" INDICATES FEW OR NO CLOUDS BELOW 12,000 FEET
WITH NO SIGNIFICANT WEATHER AND/OR OBSTRUCTIONS TO VISIBILITY.

KYZ001>023-026-027-061>063-070>075-040000-
WESTERN AND SOUTH CENTRAL KENTUCKY

CITY           SKY/WX    TMP DP  RH WIND       PRES   REMARKS
PADUCAH        CLOUDY    53  52  96 SW10      29.85S FOG
HENDERSON      CLOUDY    52  48  87 W9        29.84R
OWENSBORO      CLOUDY    58  56  93 W14       29.84R
HOPKINSVILLE   DRIZZLE   61  59  94 SW13      29.87S
BOWLING GREEN  CLOUDY    63  57  81 S15G24    29.88S
GLASGOW        CLOUDY    62  56  80 SW14G23   29.88F
$$

KYZ024-025-028>034-038-045-046-053-040000-
NORTH CENTRAL KENTUCKY

CITY           SKY/WX    TMP DP  RH WIND       PRES   REMARKS
LOUISVILLE/SDF CLOUDY    63  56  78 SW20G26   29.78F
LOUISVILLE/LOU CLOUDY    63  56  78 SW16G26   29.79S
FORT KNOX      CLOUDY    62  57  83 SW15G23   29.79F
$$

KYZ035>037-039>044-047>052-055>060-089>105-040000-
NORTHEAST KENTUCKY

CITY           SKY/WX    TMP DP  RH WIND       PRES   REMARKS
LEXINGTON      CLOUDY    60  56  86 SW18G30   29.82S
COVINGTON      LGT RAIN  50  48  93 W10       29.77S FOG
FRANKFORT      CLOUDY    61  55  81 SW22G29   29.78F
$$

KYZ054-064>069-076>088-106>120-040000-
SOUTHEAST KENTUCKY

CITY           SKY/WX    TMP DP  RH WIND       PRES   REMARKS
JACKSON        CLOUDY    59  53  80 VRB6      29.89F
LONDON         CLOUDY    61  53  75 SW15G21   29.92F
SOMERSET       CLOUDY    55  54  94 S7        29.92F
MIDDLESBORO    FOG       42  42 100 CALM      30.00F VSB<1/4
MONTICELLO     CLOUDY    63  58  83 SW14      29.95F
$$



USA.gov is the U.S. government's official web portal to all federal, state and local government web resources and services.